User: anonymous   Login
Location: La Pernelle
(49.6188°N, 1.2999°W)
Time: 01:55:38
(UTC+00:00)
Language:

Cosmos 220 Rocket - Orbit

View from above orbital plane
View from above orbital plane
View from above satellite
View from above satellite

Ground track
Ground track

The orbit data is extracted from the following two-line orbital elements,

1  3230U 68040B   21260.65887128  .00000323  00000-0  36570-4 0  9995
2  3230  74.0382  12.5045 0031404 270.8328  88.9256 14.90862766866965
Epoch (UTC): 17 September 2021 15:48:46
Eccentricity: 0.0031404
inclination: 74.0382°
perigee height: 573 km
apogee height: 617 km
right ascension of ascending node: 12.5045°
argument of perigee: 270.8328°
revolutions per day: 14.90862766
mean anomaly at epoch: 88.9256°
orbit number at epoch: 86696

The dashed part of the orbit path shows where the satellite is in the earth's shadow,  

DLR